Погода в Котласе

Погода в Котласе : погода сейчас, прогноз погоды и архив. Всё, что Вы хотите узнать о погоде в Котласе!

Поиск расширенной информации на нашем сайте:

Полезная информация:

Другие новости

Новости СМИ2

Главная страница сайта

Новости сайта

03.07.2017

Напоминаем, что на нашем специализированном сайте Метеоцентр.Азия вы можете получить высокодетализированные автоматические прогнозы погоды по пунктам России, СНГ и мира в авиационном формате (включающие направление и скорость ветра, видимость, явления погоды, количество и форму облачности, нижнюю и верхнюю границу облачности).

Рекомендуем:

Погода в Котласе - сегодня

Время (UTC), дата Ветер
(°,м/с) 
Видим.   Явления Облачность Т
(°С)
Тd
(°С)
f(%) Тe
(°С)
Pmin
(гПа)
dP
(гПа)
Po
(мм)
O2
(г/м3)
Тmin Tmax R s Состояние
почвы
21 18.05.19 350 (С) 6{10}  10 км    10/4 600 м средняя 
[Sc|Ac und]
+4.2 +0.5 77 +2  1011.6  754  299           
00 19.05.19 340 (С) 7-10{11}  10 км    10/5 600 м средняя 
[Sc|Ac und]
+2.9 -0.4 79 1011.8  0.2  754  301           
03 19.05.19 310 (СЗ) 7-10{11}  20000 м    10/4 600 м средняя 
[Sc|Ac und]
+2.7 -0.3 81 -1  1012.2  0.4  754  301  +2.5    0.1    влажная 
06 19.05.19 320 (СЗ) 6{11}  20000 м    10/8 960 м средняя 
[Sc|Ac und]
+3.7 +0 77 +1  1013.3  1.1  755  300           
09 19.05.19 320 (СЗ) 5{10}  20000 м    10/10 870 м 
[Sc]
+4.6 +0.1 73 +2  1014.9  1.6  756  300           
12 19.05.19 330 (СЗ) 5-10{11}  20000 м    10/10 840 м 
[Sc]
+5.6 +1.3 74 +4  1016.2  1.3  757  299           
15 19.05.19 330 (СЗ) 4{10}  20000 м    10/10 1020 м 
[Sc]
+6.2 +1.4 71 +5  1016.8  0.6  757  298    +6.7       
18 19.05.19 340 (С) 20000 м    10/10 900 м 
[Sc]
+6 +2.3 77 +6  1017.4  0.5  758  298           
21 19.05.19 330 (СЗ) 10 км    10/4 600 м средняя 
[Sc|Ac und]
+5.2 +2.7 84 +4  1017.8  0.4  758  299           
00 20.05.19 310 (СЗ) 10 км    10/4 1000 м средняя 
[Sc|Ac und]
+5.2 +2.7 84 +5  1017.5  -0.3  758  299           
03 20.05.19 330 (СЗ) 20000 м    10/0 средняя, верхняя 
[Ac trans|Ci fib]
+5.4 +2.5 82 +4  1018.1  0.6  758  299  +5.2        сухая 
06 20.05.19 310 (СЗ) 20000 м    8/0 верхняя 
[Ci fib]
+7.6 +2.9 72 +6  1018.6  0.6  759  297           
09 20.05.19 310 (СЗ) 20000 м    9/5 600 м средняя, верхняя 
[Sc|Ac trans|Ci fib]
+10.8 +2.5 56 +10  1018.7  0.1  759  294           
12 20.05.19 340 (С) 6{10}  20000 м    8/5 1000 м средняя, верхняя 
[Sc|Ac trans|Ci fib]
+11.8 -0.2 44 +11  1018.8  0.1  759  293           
15 20.05.19 320 (СЗ) 4{10}  20000 м    8/4 1000 м средняя, верхняя 
[Sc|Ac trans|Ci fib]
+10.8 -0.7 45 +10  1018.6  -0.2  759  294    +12.6       
18 20.05.19 330 (СЗ) 20000 м    4/0 средняя, верхняя 
[Ac trans|Ci fib]
+6.4 -0.4 62 +7  1018.8  0.1  759  299           
21 20.05.19 тихо ()   10 км    3/0 верхняя 
[Ci fib]
-0.2 -0.5 98 -0  1019.2  0.3  759  306           
00 21.05.19 тихо ()   6000 м  дымка  3/0 верхняя 
[Ci fib]
-2.8 -3.1 98 -3  1019.7  0.5  759  310           
03 21.05.19 340 (С) 20000 м    1/0 верхняя 
[Ci fib]
+4.7 -1.3 65 +4  1020.4  0.8  760  301  -3        сухая 
06 21.05.19 310 (СЗ) 20000 м    3/0 верхняя 
[Ci fib]
+9.1 -0.9 50 +8  1020.5  0.2  760  297           
09 21.05.19 290 (З) 20000 м    1/0 верхняя 
[Ci fib]
+11.2 -0.5 44 +10  1019.4  -1.1  759  294           
12 21.05.19 300 (СЗ) 20000 м    1/0 верхняя 
[Ci fib]
+13.8 +1.3 43 +14  1018  -1.3  758  291           
15 21.05.19 360 (С) 20000 м    3/0 верхняя 
[Ci fib]
+13.9 +0.4 40 +14  1016.5  -1.4  757  290    +14       
18 21.05.19 тихо ()   20000 м    3/0 верхняя 
[Ci fib]
+6.7 +8.9 100 +7  1015.7  -0.9  757  296           
21 21.05.19 130 (ЮВ) 10 км    3/0 верхняя 
[Ci fib]
+0.7 +0.1 96 +1  1015.6  -0.4  756  304           
Время (UTC), дата Ветер
(°,м/с) 
Видим.   Явления Облачность Т
(°С)
Тd
(°С)
f(%) Тe
(°С)
Pmin
(гПа)
dP
(гПа)
Po
(мм)
O2
(г/м3)
Тmin Tmax R s Состояние
почвы

Для получения пояснительной информации подведите курсор к названию столбца.

ПОГОДА в Котласе - архив

Всё, что Вы хотите узнать о погоде в Котласе - удобно и подробно!

Выберите нужную дату (начиная с 1 января 2018* года) и нажмите кнопку "Найти".
Будут отображены архивные сводки погоды по пункту Котлас, начиная с указанной даты.


Отображать данные в формате CSV (для использования в таблицах Excel)


Внимание! Наш архив погоды предназначен исключительно для личного некоммерческого использования в познавательных целях. Если Вам необходимы официальные справки о состоянии погоды (для производственных, юридических, коммерческих и т.п. целей), обращайтесь в органы Росгидромета.

*Примечание: данная дата относится к архиву по метеостанциям СССР (Россия, СНГ, Балтия).
Архив по метеостанциям Зарубежной Европы и Азии (кроме Китая) хранится 10 дней, по другим регионам земного шара (Китай, Африка, Америка, Австралия, Океания) - 1 день.

Котлас - район местоположения метеостанции


Название, широта, долгота, высота метеостанции:
Котлас 61.2°ш. 46.7°д. 56 м над ур. моря [Российская Федерация]

Дополнительная информация

В oтличие oт бoльшинства пoгoдных сайтoв мы публикуем пoдрoбную метеoинфoрмацию в детальнoм прoфессиoнальнoм фoрмате.

Характеристики температуры и влажнoсти вoздуха измеряются на высoте 2 м в тени вдали oт зданий и деревьев.
Скoрoсть ветра измеряется на высoте 10 м (на урoвне рoста челoвека скoрoсть ветра ниже в 1.5-2 раза). Если метеoстанция нахoдится в гoрoде или в лесу, тo скoрoсть ветра занижена на 2-4 м/с пo сравнению с oткрытым местoм. Скoрoсть ветра над акватoриями крупных рек и oзёр, а также на вершинах хoлмoв на 2-5 м/с выше, чем в oбычных услoвиях.
Атмoсфернoе давление в разных тoчках местнoсти мoжет значительнo oтличаться oт давления на метеoстанции, в зависимoсти oт услoвий рельефа (при пoдъёме на 10 м давление пoнижается примернo на 1 мм рт.ст.).